Weather History for KPBI - September, 2012

Change the Weather History Date:

Monday, September 17, 2012

  Actual Average Record
Temperature  
Mean Temperature 82 °F 82 °F  
Max Temperature 86 °F 88 °F 95 °F (1938)
Min Temperature 77 °F 75 °F 68 °F (1961)
Degree Days  
Heating Degree Days 0 0  
Month to date heating degree days 0 0  
Since 1 July heating degree days 0 0  
Cooling Degree Days 17 17  
Month to date cooling degree days 294 289  
Year to date cooling degree days 3198 2995  
Growing Degree Days 32 (Base 50)    
Moisture  
Dew Point 73 °F    
Average Humidity 78    
Maximum Humidity 85    
Minimum Humidity 70    
Precipitation  
Precipitation T in 0.30 in 5.19 in (1960)
Month to date precipitation 3.12 4.83  
Year to date precipitation 64.59 45.55  
Snow  
Snow 0.00 in - - ()
Month to date snowfall 0.0  
Since 1 July snowfall 0.0  
Since 1 September snowfall 0.0  
Snow Depth 0.00 in    
Sea Level Pressure  
Sea Level Pressure 29.98 in    
Wind  
Wind Speed 9 mph (ESE)    
Max Wind Speed 17 mph    
Max Gust Speed 22 mph    
Visibility 10 miles    
Events Rain , Thunderstorm    
T = Trace of Precipitation, MM = Missing Value Source: NWS Daily Summary

Daily Weather History Graph

Daily Weather History Graph

Search for Another Location

Airport or City:

Trip Planner

Search our weather history database for the weather conditions in past years. The results will help you decide how hot, cold, wet, or windy it might be!

Date:

Astronomy

Sep. 17, 2012 Rise Set
Actual Time 7:07 AM EDT 7:21 PM EDT
Civil Twilight 6:43 AM EDT 7:45 PM EDT
Nautical Twilight 6:16 AM EDT 8:12 PM EDT
Astronomical Twilight 5:49 AM EDT 8:39 PM EDT
Moon 8:38 AM EDT (9/17) 8:21 PM EDT (9/17)
Length of Visible Light 13h 01m
Length of Day
12h 14m
Waxing Crescent, 3% of the Moon is Illuminated
Sep 17
Waxing Crescent
Sep 22
First Quarter
Sep 29
Full
Oct 8
Last Quarter
Oct 15
New

Hourly Weather History & Observations

Time (EDT) Temp. Heat Index Dew Point Humidity Pressure Visibility Wind Dir Wind Speed Gust Speed Precip Events Conditions
12:53 AM 81.0 °F 85.8 °F 73.0 °F 77% 30.01 in 10.0 mi ESE 9.2 mph - N/A   Mostly Cloudy
1:53 AM 81.0 °F 85.8 °F 73.0 °F 77% 29.99 in 10.0 mi ESE 9.2 mph - N/A   Scattered Clouds
2:53 AM 80.1 °F 83.8 °F 72.0 °F 76% 29.98 in 10.0 mi East 10.4 mph - N/A   Scattered Clouds
3:53 AM 80.1 °F 84.2 °F 73.0 °F 79% 29.97 in 10.0 mi East 8.1 mph - N/A   Scattered Clouds
4:53 AM 81.0 °F 85.8 °F 73.0 °F 77% 29.97 in 10.0 mi East 6.9 mph - N/A   Scattered Clouds
5:53 AM 79.0 °F - 72.0 °F 79% 29.97 in 10.0 mi SE 5.8 mph - N/A   Mostly Cloudy
6:53 AM 80.1 °F 84.5 °F 73.9 °F 81% 29.99 in 10.0 mi East 5.8 mph - N/A   Mostly Cloudy
7:53 AM 80.1 °F 84.5 °F 73.9 °F 81% 30.00 in 10.0 mi ESE 3.5 mph - N/A   Mostly Cloudy
8:53 AM 81.0 °F 86.2 °F 73.9 °F 79% 30.01 in 10.0 mi East 11.5 mph - N/A   Mostly Cloudy
9:53 AM 81.0 °F 84.9 °F 71.1 °F 72% 30.03 in 10.0 mi SE 8.1 mph - N/A   Mostly Cloudy
10:07 AM 80.6 °F 84.6 °F 71.6 °F 74% 30.04 in 10.0 mi ESE 11.5 mph - N/A   Mostly Cloudy
10:53 AM 78.1 °F - 73.0 °F 84% 30.03 in 10.0 mi East 9.2 mph - 0.00 in Rain Light Rain
11:23 AM 78.8 °F - 73.4 °F 83% 30.03 in 10.0 mi East 5.8 mph - 0.00 in Rain Light Rain
11:53 AM 80.1 °F 85.1 °F 75.0 °F 85% 30.02 in 10.0 mi ESE 10.4 mph - 0.00 in Rain Light Rain
12:53 PM 82.0 °F 87.9 °F 73.9 °F 76% 30.00 in 10.0 mi ESE 11.5 mph - 0.00 in   Mostly Cloudy
1:53 PM 84.9 °F 92.1 °F 73.9 °F 69% 29.98 in 10.0 mi ESE 13.8 mph 20.7 mph N/A   Mostly Cloudy
2:53 PM 84.9 °F 92.1 °F 73.9 °F 69% 29.96 in 10.0 mi SE 11.5 mph - N/A   Mostly Cloudy
3:53 PM 84.9 °F 91.4 °F 73.0 °F 67% 29.94 in 10.0 mi SE 11.5 mph 20.7 mph N/A   Mostly Cloudy
4:53 PM 84.9 °F 91.4 °F 73.0 °F 67% 29.93 in 10.0 mi SE 12.7 mph - N/A   Mostly Cloudy
5:53 PM 84.0 °F 90.2 °F 73.0 °F 69% 29.93 in 10.0 mi SE 12.7 mph - N/A   Mostly Cloudy
6:53 PM 82.0 °F 87.9 °F 73.9 °F 76% 29.94 in 10.0 mi SE 11.5 mph - N/A   Mostly Cloudy
7:53 PM 82.0 °F 87.9 °F 73.9 °F 76% 29.95 in 10.0 mi SSE 6.9 mph - N/A   Scattered Clouds
8:53 PM 80.1 °F 83.6 °F 71.1 °F 74% 29.97 in 10.0 mi South 8.1 mph - N/A   Scattered Clouds
9:53 PM 80.1 °F 83.6 °F 71.1 °F 74% 29.98 in 10.0 mi SE 5.8 mph - N/A   Scattered Clouds
10:53 PM 80.1 °F 84.2 °F 73.0 °F 79% 29.99 in 10.0 mi SE 5.8 mph - N/A   Scattered Clouds
11:38 PM 80.6 °F 85.4 °F 73.4 °F 79% 29.98 in 10.0 mi SSE 5.8 mph - N/A Thunderstorm Thunderstorm
11:53 PM 81.0 °F 86.2 °F 73.9 °F 79% 29.99 in 10.0 mi SE 4.6 mph - N/A Thunderstorm Thunderstorm